FW6023 Weather Reports


Display with metric or nautical units.
time (UTC)temp
F
wind
direction
speed
MPH
gust
MPH
rain 1hr
in
rain 24hr
in
rain mn
in
humidity
%
barometer
mb
20260506121538 51 169 3.0 5.0 0.00 0.00 0.00 90 1017.8
20260506120040 51 175 2.0 8.0 0.00 0.00 0.00 90 1017.4
20260506114540 51 171 3.0 9.0 0.00 0.00 0.00 90 1017.4
20260506113041 51 174 3.0 8.0 0.00 0.00 0.00 90 1017.2
20260506111537 51 176 1.0 4.0 0.00 0.00 0.00 91 1017.3
20260506110037 50 169 1.0 6.0 0.00 0.00 0.00 91 1017.2
20260506104537 50 174 2.0 5.0 0.00 0.00 0.00 92 1017.0
20260506103037 50 174 1.0 3.0 0.00 0.00 0.00 92 1016.8
20260506101540 50 173 1.0 3.0 0.00 0.00 0.00 92 1016.7
20260506100039 50 163 1.0 3.0 0.00 0.00 0.00 92 1016.5
20260506094540 51 0 1.0 4.0 0.00 0.00 0.00 92 1016.6
20260506093038 50 171 1.0 4.0 0.00 0.00 0.00 92 1016.6
20260506091541 50 169 1.0 3.0 0.00 0.00 0.00 92 1016.5
20260506090036 50 169 1.0 3.0 0.00 0.00 0.00 92 1016.4
20260506084546 50 170 1.0 3.0 0.00 0.00 0.00 92 1016.4
20260506083058 50 170 1.0 3.0 0.00 0.00 0.00 92 1016.5
20260506081538 50 173 0.0 2.0 0.00 0.00 0.00 92 1016.5
20260506073046 50 173 1.0 3.0 0.00 0.00 0.00 91 1016.2
20260506071540 50 181 1.0 3.0 0.00 0.00 0.00 92 1016.1
20260506061538 51 163 1.0 3.0 0.00 0.00 0.00 91 1015.8
20260506044539 52 166 1.0 3.0 0.00 0.00 0.00 90 1015.1
20260506043046 52 166 1.0 2.0 0.00 0.00 0.00 90 1015.0
20260506041542 52 166 0.0 2.0 0.00 0.00 0.00 90 1014.9
20260506040041 52 166 0.0 4.0 0.00 0.00 0.00 89 1014.8
20260506034552 53 0 0.0 2.0 0.00 0.00 0.00 88 1014.4
20260506033038 53 0 0.0 3.0 0.00 0.00 0.00 88 1014.4
20260506031539 53 166 1.0 4.0 0.00 0.00 0.00 87 1014.3
20260506030044 54 165 0.0 2.0 0.00 0.00 0.00 86 1014.4
20260506024557 54 163 1.0 3.0 0.00 0.00 0.00 85 1014.5
20260506023038 56 160 0.0 2.0 0.00 0.00 0.00 84 1014.4
20260506021537 57 160 0.0 3.0 0.00 0.00 0.00 81 1014.5
20260506020038 58 159 0.0 3.0 0.00 0.00 0.00 80 1014.6
20260506014538 58 159 0.0 2.0 0.00 0.00 0.00 80 1014.5
20260506013100 59 157 1.0 2.0 0.00 0.00 0.00 78 1014.6
20260506011542 60 157 1.0 4.0 0.00 0.00 0.00 76 1014.7
20260506010040 61 157 1.0 3.0 0.00 0.00 0.00 75 1014.7
20260506004537 61 157 0.0 2.0 0.00 0.00 0.00 76 1014.7
20260506003039 61 157 0.0 2.0 0.00 0.00 0.00 77 1014.7
20260506001539 61 158 1.0 4.0 0.00 0.00 0.00 76 1014.9
20260506000036 61 167 1.0 4.0 0.00 0.00 0.00 77 1015.1
20260505234541 60 167 1.0 3.0 0.00 0.00 0.00 78 1015.1
20260505233038 61 167 0.0 3.0 0.00 0.00 0.00 78 1015.3
20260505231541 60 168 0.0 3.0 0.00 0.00 0.00 79 1015.3
20260505230050 60 172 1.0 4.0 0.00 0.00 0.00 79 1015.5
20260505224537 60 167 1.0 3.0 0.00 0.00 0.00 81 1015.5
20260505223055 58 161 0.0 4.0 0.00 0.00 0.00 85 1015.7
20260505221540 58 159 2.0 3.0 0.00 0.00 0.00 84 1015.8
20260505220049 57 0 0.0 3.0 0.00 0.00 0.00 86 1015.7
20260505214545 56 158 1.0 2.0 0.00 0.00 0.00 86 1015.9
20260505213054 56 157 0.0 2.0 0.00 0.00 0.00 87 1015.9
20260505211538 56 157 1.0 2.0 0.00 0.00 0.00 86 1015.9
20260505210040 56 157 0.0 2.0 0.00 0.00 0.00 87 1016.0
20260505204540 56 154 0.0 2.0 0.00 0.00 0.00 87 1016.1
20260505203045 56 0 1.0 3.0 0.00 0.00 0.00 87 1016.1
20260505201538 56 153 1.0 5.0 0.00 0.00 0.00 88 1016.1
20260505200044 55 165 1.0 3.0 0.00 0.00 0.00 89 1015.9
20260505194540 55 165 0.0 3.0 0.00 0.00 0.00 90 1016.1
20260505193038 54 0 0.0 1.0 0.00 0.00 0.00 90 1016.1
20260505191538 54 166 0.0 2.0 0.00 0.00 0.00 91 1016.0
20260505190037 54 0 0.0 2.0 0.00 0.00 0.00 91 1016.0
20260505184538 54 166 1.0 3.0 0.00 0.00 0.00 90 1015.9
20260505183053 54 0 0.0 1.0 0.00 0.00 0.00 91 1015.9
20260505181539 54 0 0.0 1.0 0.00 0.00 0.00 91 1015.9
20260505180040 53 0 0.0 2.0 0.00 0.00 0.00 91 1015.8
20260505174541 53 0 0.0 1.0 0.00 0.00 0.00 91 1015.8
20260505173044 53 0 0.0 1.0 0.00 0.00 0.00 92 1015.6
20260505171542 52 0 0.0 2.0 0.00 0.00 0.00 92 1015.5
20260505170043 52 0 0.0 0.0 0.00 0.00 0.00 92 1015.6
20260505164550 52 0 0.0 0.0 0.00 0.00 0.00 92 1015.5
20260505163054 52 0 0.0 1.0 0.00 0.00 0.00 92 1015.5
20260505161540 52 0 0.0 0.0 0.00 0.00 0.00 93 1015.6
20260505153051 51 0 0.0 0.0 0.00 0.00 0.00 92 1015.4
20260505151543 51 0 0.0 0.0 0.00 0.00 0.00 92 1015.2
20260505124546 51 0 1.0 4.0 0.00 0.00 0.00 92 1013.5
20260505123043 51 155 1.0 3.0 0.00 0.00 0.00 92 1013.3